owner,sensor,date,latitude,longitude,air_pressure(mBar),qcFlag 
COMPS,ioos:station:USF.COMPS:C13:1,2015-09-01T05:05:00Z,26.0630,-83.0730,1015.26,1111122 
COMPS,ioos:station:USF.COMPS:C13:1,2015-09-01T05:35:00Z,26.0630,-83.0730,1014.87,1111122 
COMPS,ioos:station:USF.COMPS:C13:1,2015-09-01T07:05:00Z,26.0630,-83.0730,1014.05,1111122 
COMPS,ioos:station:USF.COMPS:C13:1,2015-09-01T07:35:00Z,26.0630,-83.0730,1014.0,1111122 
COMPS,ioos:station:USF.COMPS:C13:1,2015-09-01T15:05:00Z,26.0630,-83.0730,1016.37,1111122 
COMPS,ioos:station:USF.COMPS:C13:1,2015-09-01T15:35:00Z,26.0630,-83.0730,1016.44,1111122 
COMPS,ioos:station:USF.COMPS:C13:1,2015-09-01T17:05:00Z,26.0630,-83.0730,1016.59,1111122 
COMPS,ioos:station:USF.COMPS:C13:1,2015-09-01T17:35:00Z,26.0630,-83.0730,1016.46,1111122 
COMPS,ioos:station:USF.COMPS:C13:1,2015-09-01T18:05:00Z,26.0630,-83.0730,1016.45,1111122 
COMPS,ioos:station:USF.COMPS:C13:1,2015-09-01T18:35:00Z,26.0630,-83.0730,1016.1,1111122 
COMPS,ioos:station:USF.COMPS:C13:1,2015-09-01T19:05:00Z,26.0630,-83.0730,1015.76,1111122 
COMPS,ioos:station:USF.COMPS:C13:1,2015-09-01T19:35:00Z,26.0630,-83.0730,1015.26,1111122 
COMPS,ioos:station:USF.COMPS:C13:1,2015-09-01T23:05:00Z,26.0630,-83.0730,1014.59,1111122 
COMPS,ioos:station:USF.COMPS:C13:1,2015-09-01T23:35:00Z,26.0630,-83.0730,1014.67,1111122 
COMPS,ioos:station:USF.COMPS:C13:1,2015-09-02T00:05:00Z,26.0630,-83.0730,1014.84,1111122 
COMPS,ioos:station:USF.COMPS:C13:1,2015-09-02T00:35:00Z,26.0630,-83.0730,1015.14,1111122 
COMPS,ioos:station:USF.COMPS:C13:1,2015-09-02T01:05:00Z,26.0630,-83.0730,1015.28,1111122 
COMPS,ioos:station:USF.COMPS:C13:1,2015-09-02T01:35:00Z,26.0630,-83.0730,1015.59,1111122 
COMPS,ioos:station:USF.COMPS:C13:1,2015-09-02T02:05:00Z,26.0630,-83.0730,1015.52,1111122 
COMPS,ioos:station:USF.COMPS:C13:1,2015-09-02T02:35:00Z,26.0630,-83.0730,1015.78,1111122 
COMPS,ioos:station:USF.COMPS:C13:1,2015-09-02T03:05:00Z,26.0630,-83.0730,1015.83,1111122 
COMPS,ioos:station:USF.COMPS:C13:1,2015-09-02T03:35:00Z,26.0630,-83.0730,1016.09,1111122 
COMPS,ioos:station:USF.COMPS:C13:1,2015-09-02T04:05:00Z,26.0630,-83.0730,1015.84,1111122 
COMPS,ioos:station:USF.COMPS:C13:1,2015-09-02T04:35:00Z,26.0630,-83.0730,1015.68,1111122 
COMPS,ioos:station:USF.COMPS:C13:1,2015-09-02T05:05:00Z,26.0630,-83.0730,1015.87,1111122 
COMPS,ioos:station:USF.COMPS:C13:1,2015-09-02T05:35:00Z,26.0630,-83.0730,1015.8,1111122 
COMPS,ioos:station:USF.COMPS:C13:1,2015-09-02T06:05:00Z,26.0630,-83.0730,1015.8,1111122 
COMPS,ioos:station:USF.COMPS:C13:1,2015-09-02T06:35:00Z,26.0630,-83.0730,1015.39,1111122 
COMPS,ioos:station:USF.COMPS:C13:1,2015-09-02T07:05:00Z,26.0630,-83.0730,1015.26,1111122 
COMPS,ioos:station:USF.COMPS:C13:1,2015-09-02T07:35:00Z,26.0630,-83.0730,1015.04,1111122 
COMPS,ioos:station:USF.COMPS:C13:1,2015-09-02T08:05:00Z,26.0630,-83.0730,1014.89,1111122 
COMPS,ioos:station:USF.COMPS:C13:1,2015-09-02T08:35:00Z,26.0630,-83.0730,1014.95,1111122 
COMPS,ioos:station:USF.COMPS:C13:1,2015-09-02T09:05:00Z,26.0630,-83.0730,1014.94,1111122 
COMPS,ioos:station:USF.COMPS:C13:1,2015-09-02T09:35:00Z,26.0630,-83.0730,1014.94,1111122 
COMPS,ioos:station:USF.COMPS:C13:1,2015-09-02T10:05:00Z,26.0630,-83.0730,1015.1,1111122 
COMPS,ioos:station:USF.COMPS:C13:1,2015-09-02T10:35:00Z,26.0630,-83.0730,1015.3,1111122 
COMPS,ioos:station:USF.COMPS:C13:1,2015-09-02T12:05:00Z,26.0630,-83.0730,1015.94,1111122 
COMPS,ioos:station:USF.COMPS:C13:1,2015-09-02T12:35:00Z,26.0630,-83.0730,1016.5,1111122 
COMPS,ioos:station:USF.COMPS:C13:1,2015-09-02T13:05:00Z,26.0630,-83.0730,1016.78,1111122 
COMPS,ioos:station:USF.COMPS:C13:1,2015-09-02T13:35:00Z,26.0630,-83.0730,1016.69,1111122 
COMPS,ioos:station:USF.COMPS:C13:1,2015-09-02T14:05:00Z,26.0630,-83.0730,1016.77,1111122 
COMPS,ioos:station:USF.COMPS:C13:1,2015-09-02T14:35:00Z,26.0630,-83.0730,1016.86,1111122 
COMPS,ioos:station:USF.COMPS:C13:1,2015-09-02T15:05:00Z,26.0630,-83.0730,1016.74,1111122 
COMPS,ioos:station:USF.COMPS:C13:1,2015-09-02T15:35:00Z,26.0630,-83.0730,1016.75,1111122 
COMPS,ioos:station:USF.COMPS:C13:1,2015-09-02T16:05:00Z,26.0630,-83.0730,1016.75,1111122 
COMPS,ioos:station:USF.COMPS:C13:1,2015-09-02T16:35:00Z,26.0630,-83.0730,1016.4,1111122 
COMPS,ioos:station:USF.COMPS:C13:1,2015-09-02T17:05:00Z,26.0630,-83.0730,1016.08,1111122 
COMPS,ioos:station:USF.COMPS:C13:1,2015-09-02T17:35:00Z,26.0630,-83.0730,1015.87,1111122 
COMPS,ioos:station:USF.COMPS:C13:1,2015-09-02T18:05:00Z,26.0630,-83.0730,1015.68,1111122 
COMPS,ioos:station:USF.COMPS:C13:1,2015-09-02T18:35:00Z,26.0630,-83.0730,1015.16,1111122 
COMPS,ioos:station:USF.COMPS:C13:1,2015-09-02T19:05:00Z,26.0630,-83.0730,1014.77,1111122 
COMPS,ioos:station:USF.COMPS:C13:1,2015-09-02T19:35:00Z,26.0630,-83.0730,1014.39,1111122 
COMPS,ioos:station:USF.COMPS:C13:1,2015-09-02T20:05:00Z,26.0630,-83.0730,1014.07,1111122 
COMPS,ioos:station:USF.COMPS:C13:1,2015-09-02T20:35:00Z,26.0630,-83.0730,1013.78,1111122 
COMPS,ioos:station:USF.COMPS:C13:1,2015-09-02T21:05:00Z,26.0630,-83.0730,1013.37,1111122 
COMPS,ioos:station:USF.COMPS:C13:1,2015-09-02T21:35:00Z,26.0630,-83.0730,1013.16,1111122 
COMPS,ioos:station:USF.COMPS:C13:1,2015-09-02T22:05:00Z,26.0630,-83.0730,1013.16,1111122 
COMPS,ioos:station:USF.COMPS:C13:1,2015-09-02T22:35:00Z,26.0630,-83.0730,1013.3,1111122 
COMPS,ioos:station:USF.COMPS:C13:1,2015-09-02T23:05:00Z,26.0630,-83.0730,1013.21,1111122 
COMPS,ioos:station:USF.COMPS:C13:1,2015-09-02T23:35:00Z,26.0630,-83.0730,1013.35,1111122 
COMPS,ioos:station:USF.COMPS:C13:1,2015-09-03T00:05:00Z,26.0630,-83.0730,1013.51,1111122 
COMPS,ioos:station:USF.COMPS:C13:1,2015-09-03T00:35:00Z,26.0630,-83.0730,1013.62,1111122 
COMPS,ioos:station:USF.COMPS:C13:1,2015-09-03T01:05:00Z,26.0630,-83.0730,1013.84,1111122 
COMPS,ioos:station:USF.COMPS:C13:1,2015-09-03T01:35:00Z,26.0630,-83.0730,1014.13,1111122 
COMPS,ioos:station:USF.COMPS:C13:1,2015-09-03T02:05:00Z,26.0630,-83.0730,1014.52,1111122 
COMPS,ioos:station:USF.COMPS:C13:1,2015-09-03T02:35:00Z,26.0630,-83.0730,1014.58,1111122 
COMPS,ioos:station:USF.COMPS:C13:1,2015-09-03T03:05:00Z,26.0630,-83.0730,1014.76,1111122 
COMPS,ioos:station:USF.COMPS:C13:1,2015-09-03T03:35:00Z,26.0630,-83.0730,1014.81,1111122 
COMPS,ioos:station:USF.COMPS:C13:1,2015-09-03T04:05:00Z,26.0630,-83.0730,1014.54,1111122 
COMPS,ioos:station:USF.COMPS:C13:1,2015-09-03T04:35:00Z,26.0630,-83.0730,1014.23,1111122 
COMPS,ioos:station:USF.COMPS:C13:1,2015-09-03T05:05:00Z,26.0630,-83.0730,1014.12,1111122 
COMPS,ioos:station:USF.COMPS:C13:1,2015-09-03T05:35:00Z,26.0630,-83.0730,1013.75,1111122 
COMPS,ioos:station:USF.COMPS:C13:1,2015-09-03T06:05:00Z,26.0630,-83.0730,1013.56,1111122 
COMPS,ioos:station:USF.COMPS:C13:1,2015-09-03T06:35:00Z,26.0630,-83.0730,1013.08,1111122 
COMPS,ioos:station:USF.COMPS:C13:1,2015-09-03T07:05:00Z,26.0630,-83.0730,1012.98,1111122 
COMPS,ioos:station:USF.COMPS:C13:1,2015-09-03T07:35:00Z,26.0630,-83.0730,1012.8,1111122 
COMPS,ioos:station:USF.COMPS:C13:1,2015-09-03T08:05:00Z,26.0630,-83.0730,1012.63,1111122 
COMPS,ioos:station:USF.COMPS:C13:1,2015-09-03T08:35:00Z,26.0630,-83.0730,1012.72,1111122 
COMPS,ioos:station:USF.COMPS:C13:1,2015-09-03T09:05:00Z,26.0630,-83.0730,1012.65,1111122 
COMPS,ioos:station:USF.COMPS:C13:1,2015-09-03T09:35:00Z,26.0630,-83.0730,1012.93,1111122 
COMPS,ioos:station:USF.COMPS:C13:1,2015-09-03T10:05:00Z,26.0630,-83.0730,1013.04,1111122 
COMPS,ioos:station:USF.COMPS:C13:1,2015-09-03T10:35:00Z,26.0630,-83.0730,1013.02,1111122 
COMPS,ioos:station:USF.COMPS:C13:1,2015-09-03T11:05:00Z,26.0630,-83.0730,1013.12,1111122 
COMPS,ioos:station:USF.COMPS:C13:1,2015-09-03T11:35:00Z,26.0630,-83.0730,1013.31,1111122 
COMPS,ioos:station:USF.COMPS:C13:1,2015-09-03T12:05:00Z,26.0630,-83.0730,1013.54,1111122 
COMPS,ioos:station:USF.COMPS:C13:1,2015-09-03T12:35:00Z,26.0630,-83.0730,1013.71,1111122 
COMPS,ioos:station:USF.COMPS:C13:1,2015-09-03T13:05:00Z,26.0630,-83.0730,1013.56,1111122 
COMPS,ioos:station:USF.COMPS:C13:1,2015-09-03T13:35:00Z,26.0630,-83.0730,1013.68,1111122 
COMPS,ioos:station:USF.COMPS:C13:1,2015-09-03T14:05:00Z,26.0630,-83.0730,1013.83,1111122 
COMPS,ioos:station:USF.COMPS:C13:1,2015-09-03T14:35:00Z,26.0630,-83.0730,1013.77,1111122 
COMPS,ioos:station:USF.COMPS:C13:1,2015-09-03T15:05:00Z,26.0630,-83.0730,1013.87,1111122 
COMPS,ioos:station:USF.COMPS:C13:1,2015-09-03T15:35:00Z,26.0630,-83.0730,1013.92,1111122 
COMPS,ioos:station:USF.COMPS:C13:1,2015-09-03T16:05:00Z,26.0630,-83.0730,1013.87,1111122 
COMPS,ioos:station:USF.COMPS:C13:1,2015-09-03T16:35:00Z,26.0630,-83.0730,1013.81,1111122 
COMPS,ioos:station:USF.COMPS:C13:1,2015-09-03T17:05:00Z,26.0630,-83.0730,1013.5,1111122 
COMPS,ioos:station:USF.COMPS:C13:1,2015-09-03T17:35:00Z,26.0630,-83.0730,1013.43,1111122 
COMPS,ioos:station:USF.COMPS:C13:1,2015-09-03T18:05:00Z,26.0630,-83.0730,1013.29,1111122 
COMPS,ioos:station:USF.COMPS:C13:1,2015-09-03T18:35:00Z,26.0630,-83.0730,1013.08,1111122 
COMPS,ioos:station:USF.COMPS:C13:1,2015-09-03T19:05:00Z,26.0630,-83.0730,1012.74,1111122 
COMPS,ioos:station:USF.COMPS:C13:1,2015-09-03T19:35:00Z,26.0630,-83.0730,1012.46,1111122 
COMPS,ioos:station:USF.COMPS:C13:1,2015-09-03T20:05:00Z,26.0630,-83.0730,1012.21,1111122 
COMPS,ioos:station:USF.COMPS:C13:1,2015-09-03T20:35:00Z,26.0630,-83.0730,1012.1,1111122 
COMPS,ioos:station:USF.COMPS:C13:1,2015-09-03T21:05:00Z,26.0630,-83.0730,1011.77,1111122 
COMPS,ioos:station:USF.COMPS:C13:1,2015-09-03T21:35:00Z,26.0630,-83.0730,1011.65,1111122 
COMPS,ioos:station:USF.COMPS:C13:1,2015-09-03T22:05:00Z,26.0630,-83.0730,1011.67,1111122 
COMPS,ioos:station:USF.COMPS:C13:1,2015-09-03T22:35:00Z,26.0630,-83.0730,1011.59,1111122 
COMPS,ioos:station:USF.COMPS:C13:1,2015-09-03T23:05:00Z,26.0630,-83.0730,1011.46,1111122 
COMPS,ioos:station:USF.COMPS:C13:1,2015-09-03T23:35:00Z,26.0630,-83.0730,1011.12,1111122 
COMPS,ioos:station:USF.COMPS:C13:1,2015-09-04T01:05:00Z,26.0630,-83.0730,1012.18,1111122 
COMPS,ioos:station:USF.COMPS:C13:1,2015-09-04T01:35:00Z,26.0630,-83.0730,1012.15,1111122 
COMPS,ioos:station:USF.COMPS:C13:1,2015-09-04T02:05:00Z,26.0630,-83.0730,1012.27,1111122 
COMPS,ioos:station:USF.COMPS:C13:1,2015-09-04T02:35:00Z,26.0630,-83.0730,1012.72,1111122 
COMPS,ioos:station:USF.COMPS:C13:1,2015-09-04T03:05:00Z,26.0630,-83.0730,1012.74,1111122 
COMPS,ioos:station:USF.COMPS:C13:1,2015-09-04T03:35:00Z,26.0630,-83.0730,1012.74,1111122 
COMPS,ioos:station:USF.COMPS:C13:1,2015-09-04T04:05:00Z,26.0630,-83.0730,1012.41,1111122 
COMPS,ioos:station:USF.COMPS:C13:1,2015-09-04T04:35:00Z,26.0630,-83.0730,1012.3,1111122 
COMPS,ioos:station:USF.COMPS:C13:1,2015-09-04T05:05:00Z,26.0630,-83.0730,1012.18,1111122 
COMPS,ioos:station:USF.COMPS:C13:1,2015-09-04T05:35:00Z,26.0630,-83.0730,1011.84,1111122 
COMPS,ioos:station:USF.COMPS:C13:1,2015-09-04T06:05:00Z,26.0630,-83.0730,1011.75,1111122 
COMPS,ioos:station:USF.COMPS:C13:1,2015-09-04T06:35:00Z,26.0630,-83.0730,1011.59,1111122 
COMPS,ioos:station:USF.COMPS:C13:1,2015-09-04T07:05:00Z,26.0630,-83.0730,1011.75,1111122 
COMPS,ioos:station:USF.COMPS:C13:1,2015-09-04T07:35:00Z,26.0630,-83.0730,1011.73,1111122 
COMPS,ioos:station:USF.COMPS:C13:1,2015-09-04T08:05:00Z,26.0630,-83.0730,1011.79,1111122 
COMPS,ioos:station:USF.COMPS:C13:1,2015-09-04T08:35:00Z,26.0630,-83.0730,1011.83,1111122 
COMPS,ioos:station:USF.COMPS:C13:1,2015-09-04T09:05:00Z,26.0630,-83.0730,1011.93,1111122 
COMPS,ioos:station:USF.COMPS:C13:1,2015-09-04T09:35:00Z,26.0630,-83.0730,1011.88,1111122 
COMPS,ioos:station:USF.COMPS:C13:1,2015-09-04T10:05:00Z,26.0630,-83.0730,1011.91,1111122 
COMPS,ioos:station:USF.COMPS:C13:1,2015-09-04T10:35:00Z,26.0630,-83.0730,1012.09,1111122 
COMPS,ioos:station:USF.COMPS:C13:1,2015-09-04T11:05:00Z,26.0630,-83.0730,1012.12,1111122 
COMPS,ioos:station:USF.COMPS:C13:1,2015-09-04T11:35:00Z,26.0630,-83.0730,1012.54,1111122 
COMPS,ioos:station:USF.COMPS:C13:1,2015-09-04T12:05:00Z,26.0630,-83.0730,1012.9,1111122 
COMPS,ioos:station:USF.COMPS:C13:1,2015-09-04T12:35:00Z,26.0630,-83.0730,1013.1,1111122 
COMPS,ioos:station:USF.COMPS:C13:1,2015-09-04T13:05:00Z,26.0630,-83.0730,1013.43,1111122 
COMPS,ioos:station:USF.COMPS:C13:1,2015-09-04T13:35:00Z,26.0630,-83.0730,1013.47,1111122 
COMPS,ioos:station:USF.COMPS:C13:1,2015-09-04T14:05:00Z,26.0630,-83.0730,1013.55,1111122 
COMPS,ioos:station:USF.COMPS:C13:1,2015-09-04T14:35:00Z,26.0630,-83.0730,1013.79,1111122 
COMPS,ioos:station:USF.COMPS:C13:1,2015-09-04T15:05:00Z,26.0630,-83.0730,1014.19,1111122 
COMPS,ioos:station:USF.COMPS:C13:1,2015-09-04T15:35:00Z,26.0630,-83.0730,1014.37,1111122 
COMPS,ioos:station:USF.COMPS:C13:1,2015-09-04T16:05:00Z,26.0630,-83.0730,1014.3,1111122 
COMPS,ioos:station:USF.COMPS:C13:1,2015-09-04T16:35:00Z,26.0630,-83.0730,1014.16,1111122 
COMPS,ioos:station:USF.COMPS:C13:1,2015-09-04T17:05:00Z,26.0630,-83.0730,1014.18,1111122 
COMPS,ioos:station:USF.COMPS:C13:1,2015-09-04T17:35:00Z,26.0630,-83.0730,1013.82,1111122 
COMPS,ioos:station:USF.COMPS:C13:1,2015-09-04T20:05:00Z,26.0630,-83.0730,1012.4,1111122 
COMPS,ioos:station:USF.COMPS:C13:1,2015-09-04T20:35:00Z,26.0630,-83.0730,1012.12,1111122 
COMPS,ioos:station:USF.COMPS:C13:1,2015-09-05T05:05:00Z,26.0630,-83.0730,1012.57,1111122 
COMPS,ioos:station:USF.COMPS:C13:1,2015-09-05T05:35:00Z,26.0630,-83.0730,1012.43,1111122 
COMPS,ioos:station:USF.COMPS:C13:1,2015-09-05T06:05:00Z,26.0630,-83.0730,1012.24,1111122 
COMPS,ioos:station:USF.COMPS:C13:1,2015-09-05T06:35:00Z,26.0630,-83.0730,1012.13,1111122 
COMPS,ioos:station:USF.COMPS:C13:1,2015-09-05T07:05:00Z,26.0630,-83.0730,1012.05,1111122 
COMPS,ioos:station:USF.COMPS:C13:1,2015-09-05T07:35:00Z,26.0630,-83.0730,1012.05,1111122 
COMPS,ioos:station:USF.COMPS:C13:1,2015-09-05T08:05:00Z,26.0630,-83.0730,1012.11,1111122 
COMPS,ioos:station:USF.COMPS:C13:1,2015-09-05T08:35:00Z,26.0630,-83.0730,1012.26,1111122 
COMPS,ioos:station:USF.COMPS:C13:1,2015-09-05T09:05:00Z,26.0630,-83.0730,1012.22,1111122 
COMPS,ioos:station:USF.COMPS:C13:1,2015-09-05T09:35:00Z,26.0630,-83.0730,1012.33,1111122 
COMPS,ioos:station:USF.COMPS:C13:1,2015-09-05T10:05:00Z,26.0630,-83.0730,1012.27,1111122 
COMPS,ioos:station:USF.COMPS:C13:1,2015-09-05T10:35:00Z,26.0630,-83.0730,1012.49,1111122 
COMPS,ioos:station:USF.COMPS:C13:1,2015-09-05T11:05:00Z,26.0630,-83.0730,1012.82,1111122 
COMPS,ioos:station:USF.COMPS:C13:1,2015-09-05T11:35:00Z,26.0630,-83.0730,1013.1,1111122 
COMPS,ioos:station:USF.COMPS:C13:1,2015-09-05T12:05:00Z,26.0630,-83.0730,1013.48,1111122 
COMPS,ioos:station:USF.COMPS:C13:1,2015-09-05T12:35:00Z,26.0630,-83.0730,1013.71,1111122 
COMPS,ioos:station:USF.COMPS:C13:1,2015-09-05T13:05:00Z,26.0630,-83.0730,1014.06,1111122 
COMPS,ioos:station:USF.COMPS:C13:1,2015-09-05T13:35:00Z,26.0630,-83.0730,1014.4,1111122 
COMPS,ioos:station:USF.COMPS:C13:1,2015-09-05T14:05:00Z,26.0630,-83.0730,1014.67,1111122 
COMPS,ioos:station:USF.COMPS:C13:1,2015-09-05T14:35:00Z,26.0630,-83.0730,1014.81,1111122 
COMPS,ioos:station:USF.COMPS:C13:1,2015-09-05T15:05:00Z,26.0630,-83.0730,1014.9,1111122 
COMPS,ioos:station:USF.COMPS:C13:1,2015-09-05T15:35:00Z,26.0630,-83.0730,1015.15,1111122 
COMPS,ioos:station:USF.COMPS:C13:1,2015-09-05T16:05:00Z,26.0630,-83.0730,1014.88,1111122 
COMPS,ioos:station:USF.COMPS:C13:1,2015-09-05T16:35:00Z,26.0630,-83.0730,1014.33,1111122 
COMPS,ioos:station:USF.COMPS:C13:1,2015-09-05T17:05:00Z,26.0630,-83.0730,1013.87,1111122 
COMPS,ioos:station:USF.COMPS:C13:1,2015-09-05T17:35:00Z,26.0630,-83.0730,1013.61,1111122 
COMPS,ioos:station:USF.COMPS:C13:1,2015-09-05T20:05:00Z,26.0630,-83.0730,1012.47,1111122 
COMPS,ioos:station:USF.COMPS:C13:1,2015-09-05T20:35:00Z,26.0630,-83.0730,1012.23,1111122 
COMPS,ioos:station:USF.COMPS:C13:1,2015-09-05T21:05:00Z,26.0630,-83.0730,1012.1,1111122 
COMPS,ioos:station:USF.COMPS:C13:1,2015-09-05T21:35:00Z,26.0630,-83.0730,1011.98,1111122 
COMPS,ioos:station:USF.COMPS:C13:1,2015-09-05T22:05:00Z,26.0630,-83.0730,1011.82,1111122 
COMPS,ioos:station:USF.COMPS:C13:1,2015-09-05T22:35:00Z,26.0630,-83.0730,1011.8,1111122 
COMPS,ioos:station:USF.COMPS:C13:1,2015-09-05T23:05:00Z,26.0630,-83.0730,1012.12,1111122 
COMPS,ioos:station:USF.COMPS:C13:1,2015-09-05T23:35:00Z,26.0630,-83.0730,1012.57,1111122 
COMPS,ioos:station:USF.COMPS:C13:1,2015-09-06T01:05:00Z,26.0630,-83.0730,1012.79,1111122 
COMPS,ioos:station:USF.COMPS:C13:1,2015-09-06T01:35:00Z,26.0630,-83.0730,1013.15,1111122 
COMPS,ioos:station:USF.COMPS:C13:1,2015-09-06T04:05:00Z,26.0630,-83.0730,1013.03,1111122 
COMPS,ioos:station:USF.COMPS:C13:1,2015-09-06T04:35:00Z,26.0630,-83.0730,1012.72,1111122 
COMPS,ioos:station:USF.COMPS:C13:1,2015-09-06T05:05:00Z,26.0630,-83.0730,1012.61,1111122 
COMPS,ioos:station:USF.COMPS:C13:1,2015-09-06T05:35:00Z,26.0630,-83.0730,1012.12,1111122 
COMPS,ioos:station:USF.COMPS:C13:1,2015-09-06T06:05:00Z,26.0630,-83.0730,1011.85,1111122 
COMPS,ioos:station:USF.COMPS:C13:1,2015-09-06T06:35:00Z,26.0630,-83.0730,1011.82,1111122 
COMPS,ioos:station:USF.COMPS:C13:1,2015-09-06T07:05:00Z,26.0630,-83.0730,1011.84,1111122 
COMPS,ioos:station:USF.COMPS:C13:1,2015-09-06T07:35:00Z,26.0630,-83.0730,1011.85,1111122 
COMPS,ioos:station:USF.COMPS:C13:1,2015-09-06T08:05:00Z,26.0630,-83.0730,1011.86,1111122 
COMPS,ioos:station:USF.COMPS:C13:1,2015-09-06T08:35:00Z,26.0630,-83.0730,1011.86,1111122 
COMPS,ioos:station:USF.COMPS:C13:1,2015-09-06T09:05:00Z,26.0630,-83.0730,1011.85,1111122 
COMPS,ioos:station:USF.COMPS:C13:1,2015-09-06T09:35:00Z,26.0630,-83.0730,1012.09,1111122 
COMPS,ioos:station:USF.COMPS:C13:1,2015-09-06T10:05:00Z,26.0630,-83.0730,1012.04,1111122 
COMPS,ioos:station:USF.COMPS:C13:1,2015-09-06T10:35:00Z,26.0630,-83.0730,1012.39,1111122 
COMPS,ioos:station:USF.COMPS:C13:1,2015-09-06T11:05:00Z,26.0630,-83.0730,1012.39,1111122 
COMPS,ioos:station:USF.COMPS:C13:1,2015-09-06T11:35:00Z,26.0630,-83.0730,1012.4,1111122 
COMPS,ioos:station:USF.COMPS:C13:1,2015-09-06T12:05:00Z,26.0630,-83.0730,1012.72,1111122 
COMPS,ioos:station:USF.COMPS:C13:1,2015-09-06T12:35:00Z,26.0630,-83.0730,1012.89,1111122 
COMPS,ioos:station:USF.COMPS:C13:1,2015-09-06T13:05:00Z,26.0630,-83.0730,1012.95,1111122 
COMPS,ioos:station:USF.COMPS:C13:1,2015-09-06T13:35:00Z,26.0630,-83.0730,1013.08,1111122 
COMPS,ioos:station:USF.COMPS:C13:1,2015-09-06T14:05:00Z,26.0630,-83.0730,1013.31,1111122 
COMPS,ioos:station:USF.COMPS:C13:1,2015-09-06T14:35:00Z,26.0630,-83.0730,1013.49,1111122 
COMPS,ioos:station:USF.COMPS:C13:1,2015-09-06T15:05:00Z,26.0630,-83.0730,1013.61,1111122 
COMPS,ioos:station:USF.COMPS:C13:1,2015-09-06T15:35:00Z,26.0630,-83.0730,1013.67,1111122 
COMPS,ioos:station:USF.COMPS:C13:1,2015-09-06T16:05:00Z,26.0630,-83.0730,1013.47,1111122 
COMPS,ioos:station:USF.COMPS:C13:1,2015-09-06T16:35:00Z,26.0630,-83.0730,1013.4,1111122 
COMPS,ioos:station:USF.COMPS:C13:1,2015-09-06T17:05:00Z,26.0630,-83.0730,1013.35,1111122 
COMPS,ioos:station:USF.COMPS:C13:1,2015-09-06T17:35:00Z,26.0630,-83.0730,1013.32,1111122 
COMPS,ioos:station:USF.COMPS:C13:1,2015-09-06T18:05:00Z,26.0630,-83.0730,1012.88,1111122 
COMPS,ioos:station:USF.COMPS:C13:1,2015-09-06T18:35:00Z,26.0630,-83.0730,1012.56,1111122 
COMPS,ioos:station:USF.COMPS:C13:1,2015-09-06T19:05:00Z,26.0630,-83.0730,1011.8,1111122 
COMPS,ioos:station:USF.COMPS:C13:1,2015-09-06T19:35:00Z,26.0630,-83.0730,1011.79,1111122 
COMPS,ioos:station:USF.COMPS:C13:1,2015-09-06T20:05:00Z,26.0630,-83.0730,1011.32,1111122 
COMPS,ioos:station:USF.COMPS:C13:1,2015-09-06T20:35:00Z,26.0630,-83.0730,1011.2,1111122 
COMPS,ioos:station:USF.COMPS:C13:1,2015-09-06T21:05:00Z,26.0630,-83.0730,1010.88,1111122 
COMPS,ioos:station:USF.COMPS:C13:1,2015-09-06T21:35:00Z,26.0630,-83.0730,1010.58,1111122 
COMPS,ioos:station:USF.COMPS:C13:1,2015-09-06T22:05:00Z,26.0630,-83.0730,1010.84,1111122 
COMPS,ioos:station:USF.COMPS:C13:1,2015-09-06T22:35:00Z,26.0630,-83.0730,1010.9,1111122 
COMPS,ioos:station:USF.COMPS:C13:1,2015-09-06T23:05:00Z,26.0630,-83.0730,1011.05,1111122 
COMPS,ioos:station:USF.COMPS:C13:1,2015-09-06T23:35:00Z,26.0630,-83.0730,1011.3,1111122 
COMPS,ioos:station:USF.COMPS:C13:1,2015-09-07T00:05:00Z,26.0630,-83.0730,1011.4,1111122 
COMPS,ioos:station:USF.COMPS:C13:1,2015-09-07T00:35:00Z,26.0630,-83.0730,1011.09,1111122 
COMPS,ioos:station:USF.COMPS:C13:1,2015-09-07T02:05:00Z,26.0630,-83.0730,1012.1,1111122 
COMPS,ioos:station:USF.COMPS:C13:1,2015-09-07T02:35:00Z,26.0630,-83.0730,1012.88,1111122 
COMPS,ioos:station:USF.COMPS:C13:1,2015-09-07T04:05:00Z,26.0630,-83.0730,1012.01,1111122 
COMPS,ioos:station:USF.COMPS:C13:1,2015-09-07T04:35:00Z,26.0630,-83.0730,1012.08,1111122 
COMPS,ioos:station:USF.COMPS:C13:1,2015-09-07T05:05:00Z,26.0630,-83.0730,1011.55,1111122 
COMPS,ioos:station:USF.COMPS:C13:1,2015-09-07T05:35:00Z,26.0630,-83.0730,1011.25,1111122 
COMPS,ioos:station:USF.COMPS:C13:1,2015-09-07T06:05:00Z,26.0630,-83.0730,1010.78,1111122 
COMPS,ioos:station:USF.COMPS:C13:1,2015-09-07T06:35:00Z,26.0630,-83.0730,1010.32,1111122 
COMPS,ioos:station:USF.COMPS:C13:1,2015-09-07T07:05:00Z,26.0630,-83.0730,1009.81,1111122 
COMPS,ioos:station:USF.COMPS:C13:1,2015-09-07T07:35:00Z,26.0630,-83.0730,1009.91,1111122 
COMPS,ioos:station:USF.COMPS:C13:1,2015-09-08T00:05:00Z,26.0630,-83.0730,1010.46,1111122 
COMPS,ioos:station:USF.COMPS:C13:1,2015-09-08T00:35:00Z,26.0630,-83.0730,1010.79,1111122 
COMPS,ioos:station:USF.COMPS:C13:1,2015-09-08T05:05:00Z,26.0630,-83.0730,1012.13,1111122 
COMPS,ioos:station:USF.COMPS:C13:1,2015-09-08T05:35:00Z,26.0630,-83.0730,1012.08,1111122 
COMPS,ioos:station:USF.COMPS:C13:1,2015-09-08T09:05:00Z,26.0630,-83.0730,1011.4,1111122 
COMPS,ioos:station:USF.COMPS:C13:1,2015-09-08T09:35:00Z,26.0630,-83.0730,1011.41,1111122 
COMPS,ioos:station:USF.COMPS:C13:1,2015-09-08T14:05:00Z,26.0630,-83.0730,1013.64,1111122 
COMPS,ioos:station:USF.COMPS:C13:1,2015-09-08T14:35:00Z,26.0630,-83.0730,1014.01,1111122 
COMPS,ioos:station:USF.COMPS:C13:1,2015-09-08T15:05:00Z,26.0630,-83.0730,1013.98,1111122 
COMPS,ioos:station:USF.COMPS:C13:1,2015-09-08T15:35:00Z,26.0630,-83.0730,1013.92,1111122 
COMPS,ioos:station:USF.COMPS:C13:1,2015-09-08T16:05:00Z,26.0630,-83.0730,1014.0,1111122 
COMPS,ioos:station:USF.COMPS:C13:1,2015-09-08T16:35:00Z,26.0630,-83.0730,1013.91,1111122 
COMPS,ioos:station:USF.COMPS:C13:1,2015-09-08T20:05:00Z,26.0630,-83.0730,1011.72,1111122 
COMPS,ioos:station:USF.COMPS:C13:1,2015-09-08T20:35:00Z,26.0630,-83.0730,1011.41,1111122 
COMPS,ioos:station:USF.COMPS:C13:1,2015-09-09T02:05:00Z,26.0630,-83.0730,1013.19,1111122 
COMPS,ioos:station:USF.COMPS:C13:1,2015-09-09T02:35:00Z,26.0630,-83.0730,1013.26,1111122 
COMPS,ioos:station:USF.COMPS:C13:1,2015-09-09T04:05:00Z,26.0630,-83.0730,1013.92,1111122 
COMPS,ioos:station:USF.COMPS:C13:1,2015-09-09T04:35:00Z,26.0630,-83.0730,1013.57,1111122 
COMPS,ioos:station:USF.COMPS:C13:1,2015-09-09T05:05:00Z,26.0630,-83.0730,1013.44,1111122 
COMPS,ioos:station:USF.COMPS:C13:1,2015-09-09T05:35:00Z,26.0630,-83.0730,1013.39,1111122 
COMPS,ioos:station:USF.COMPS:C13:1,2015-09-09T06:05:00Z,26.0630,-83.0730,1013.4,1111122 
COMPS,ioos:station:USF.COMPS:C13:1,2015-09-09T06:35:00Z,26.0630,-83.0730,1013.1,1111122 
COMPS,ioos:station:USF.COMPS:C13:1,2015-09-09T07:05:00Z,26.0630,-83.0730,1012.82,1111122 
COMPS,ioos:station:USF.COMPS:C13:1,2015-09-09T07:35:00Z,26.0630,-83.0730,1012.65,1111122 
COMPS,ioos:station:USF.COMPS:C13:1,2015-09-09T08:05:00Z,26.0630,-83.0730,1012.71,1111122 
COMPS,ioos:station:USF.COMPS:C13:1,2015-09-09T08:35:00Z,26.0630,-83.0730,1012.56,1111122 
COMPS,ioos:station:USF.COMPS:C13:1,2015-09-09T09:05:00Z,26.0630,-83.0730,1012.58,1111122 
COMPS,ioos:station:USF.COMPS:C13:1,2015-09-09T09:35:00Z,26.0630,-83.0730,1012.62,1111122 
COMPS,ioos:station:USF.COMPS:C13:1,2015-09-09T10:05:00Z,26.0630,-83.0730,1012.95,1111122 
COMPS,ioos:station:USF.COMPS:C13:1,2015-09-09T10:35:00Z,26.0630,-83.0730,1013.03,1111122 
COMPS,ioos:station:USF.COMPS:C13:1,2015-09-09T11:05:00Z,26.0630,-83.0730,1013.32,1111122 
COMPS,ioos:station:USF.COMPS:C13:1,2015-09-09T11:35:00Z,26.0630,-83.0730,1013.45,1111122 
COMPS,ioos:station:USF.COMPS:C13:1,2015-09-09T12:05:00Z,26.0630,-83.0730,1013.78,1111122 
COMPS,ioos:station:USF.COMPS:C13:1,2015-09-09T12:35:00Z,26.0630,-83.0730,1013.84,1111122 